Terminal Aerodrome Forecast
Issued by NWS Charleston, WV

Current Version | Previous Version | Graphics & Text | Print | Product List | Glossary On
Versions: 1 2 3 4 5 6 7 8 9 10 11 12 13 14 15 16 17 18 19 20 21 22 23 24 25 26 27 28 29 30 31
196
FTUS41 KRLX 251515 AAA
TAFCRW
TAF AMD
KCRW 251515Z 2515/2612 24008KT P6SM FEW012 BKN035 BKN080
     FM251600 25011G18KT P6SM OVC035
     FM251700 26013G25KT P6SM BKN045
     FM260000 27010G19KT P6SM BKN040
     FM260400 27009KT P6SM BKN040=

USA.gov is the U.S. government's official web portal to all federal, state and local government web resources and services.